Regional Weather Roundup
Issued by NWS Grand Forks, ND

Home | Current Version | Previous Version | Graphics & Text | Print | Product List | Glossary On
Versions: 1 2 3 4 5 6 7 8 9 10 11 12 13 14 15 16 17 18 19 20 21 22 23 24 25 26 27 28 29 30 31 32 33 34 35 36 37 38 39 40 41 42 43 44 45 46 47 48 49 50
000
ASUS43 KFGF 271831
RWRFGF
PRAIRIE TO PINES  WEATHER ROUNDUP
NATIONAL WEATHER SERVICE EASTERN NORTH DAKOTA/GRAND FORKS ND
100 PM CDT WED JUL 27 2016

 **SATELLITE DATA USED TO AUGMENT SKY COVER AT AUTOMATED STATIONS**
 *****  WEATHER ACROSS EASTERN NORTH DAKOTA  *****

CITY           SKY/WX    TMP DP  RH WIND       PRES   REMARKS
GRAND FORKS    MOSUNNY   75  61  61 N13       30.07R
6HR MIN TEMP:  61; 6HR MAX TEMP:  75;

GRAND FRKS AFB SUNNY     74  59  59 N15       30.08R
GRAND FRKS NWS   N/A     73 N/A N/A NW9         N/A
DEVILS LAKE    CLOUDY    70  57  63 N12       30.15R
6HR MIN TEMP:  60; 6HR MAX TEMP:  70;

FARGO          SUNNY     77  59  53 N15       30.04R
WAHPETON ARPT  CLEAR     75  55  50 N14G20    30.03F
$$

 ***** WEATHER ACROSS CENTRAL AND WESTERN NORTH DAKOTA  *****

CITY           SKY/WX    TMP DP  RH WIND       PRES   REMARKS
BISMARCK       PTSUNNY   76  63  64 E8        30.12S
6HR MIN TEMP:  59; 6HR MAX TEMP:  77;

MINOT          PTSUNNY   75  58  55 NE10      30.13F
6HR MIN TEMP:  59; 6HR MAX TEMP:  78;

JAMESTOWN      SUNNY     75  60  59 N8        30.12R
6HR MIN TEMP:  61; 6HR MAX TEMP:  75;

MINOT AFB      MOSUNNY   73  57  58 E12       30.13F
GARRISON         N/A     75  61  61 E10       30.13S
WILLISTON      CLOUDY    73  59  61 CALM      30.14R
6HR MIN TEMP:  61; 6HR MAX TEMP:  75; 6HR PCP: TRACE;

DICKINSON      CLOUDY    70  60  70 E6        30.15R
6HR MIN TEMP:  54; 6HR MAX TEMP:  70;

HETTINGER      CLOUDY    73  61  65 E8        30.16R
6HR MIN TEMP:  56; 6HR MAX TEMP:  75;

$$

 *****  OTHER AIRPORT OBSERVATIONS IN OUR AREA  *****

CITY           SKY/WX    TMP DP  RH WIND       PRES   REMARKS
WALHALLA       FAIR      72  68  88 N12       30.13R
GRAFTON AIRPOR FAIR      73  59  60 N16G22    30.11R
VALLEY CITY AR FAIR      75  59  57 N14       30.12F
CANDO          CLOUDY    72  59  64 N13       30.17S
CAVALIER APRT  FAIR      72  57  60 N10G17    30.11S
GWINNER        FAIR      77  61  57 N13       30.08S
SHEYENNE NWR     N/A     77  58  51 N9        29.95S
ROLLA          MOCLDY    68  55  64 N13       30.18S
 ***** THE ABOVE OBSERVATIONS ARE NON NWS ARE NOT QUALITY
       CONTROLLED AND MAY MIS-REPORT RAIN FOR SNOW...
$$

  *****  WEATHER ACROSS NORTHERN MINNESOTA  *****

CITY           SKY/WX    TMP DP  RH WIND       PRES   REMARKS
FLAG ISLAND    SUNNY     72  55  56 NE14      30.07F
WARROAD        MOSUNNY   73  63  68 NE14      30.07S
ROSEAU         SUNNY     75  64  69 E12       30.06S
HALLOCK        MOSUNNY   73  57  56 N12       30.08R
THF RVR FALLS  MOSUNNY   73  58  59 N8        30.06R
6HR MIN TEMP:  61; 6HR MAX TEMP:  73;

BAUDETTE       MOSUNNY   77  56  48 E8        30.05S
6HR MIN TEMP:  62; 6HR MAX TEMP:  78;

WASKISH        SUNNY     77  61  57 NE5       30.03F
CROOKSTON      MOSUNNY   73  59  60 N12       30.06S
$$
  *****  WEATHER ACROSS CENTRAL AND WEST MINNESOTA  *****

CITY           SKY/WX    TMP DP  RH WIND       PRES   REMARKS
FOSSTON        SUNNY     75  57  53 NW10      30.05R
BEMIDJI        MOSUNNY   73  63  68 E7        30.04R
PARK RAPIDS    PTSUNNY   71  62  73 E6        30.03S
6HR MIN TEMP:  64; 6HR MAX TEMP:  71; 6HR PCP:  0.23;

ELBOW LAKE     FAIR      74  66  75 N10       30.03S
WADENA         CLOUDY    70  63  78 N5        30.03R
DETROIT LAKES  SUNNY     75  61  60 N12       30.05R
MOORHEAD       SUNNY     75  61  60 N14       30.05R
FERGUS FALLS   MOSUNNY   75  63  64 N9        30.04S
MORRIS MN      MOSUNNY   77  66  69 NW9       30.01S
STAPLES        MOSUNNY   70  61  73 N7        30.03S
$$
  *****  WEATHER ELSEWHERE ACROSS MINNESOTA  *****

CITY           SKY/WX    TMP DP  RH WIND       PRES   REMARKS
DULUTH         LGT RAIN  64  56  75 NE17      30.04S
6HR MIN TEMP:  64; 6HR MAX TEMP:  67; 6HR PCP: TRACE;

INTRNTL FALLS  MOSUNNY   75  59  57 NE9       30.05F
6HR MIN TEMP:  65; 6HR MAX TEMP:  75;

ELY            PTSUNNY   70  63  78 E3        30.05F
CLOQUET        DRIZZLE   64  57  77 CALM      30.05R
WHEATON        MOSUNNY   79  66  65 N9        30.04S
BRAINERD       LGT RAIN  67  64  90 NE8       30.01S
6HR MIN TEMP:  65; 6HR MAX TEMP:  68; 6HR PCP:  0.35;

HIBBING        LGT RAIN  63  61  93 E7        30.05R
6HR MIN TEMP:  61; 6HR MAX TEMP:  67; 6HR PCP:  0.15;

ALEXANDRIA     CLOUDY    74  63  68 N3        30.03S
6HR MIN TEMP:  66; 6HR MAX TEMP:  74; 6HR PCP:  0.02;

SAINT CLOUD    LGT RAIN  70  69  97 N9        29.96F
6HR MIN TEMP:  67; 6HR MAX TEMP:  74; 6HR PCP:  0.08;

MINNEAPOLIS    LGT RAIN  77  70  79 S8        29.96R
6HR MIN TEMP:  76; 6HR MAX TEMP:  80; 6HR PCP:  0.01;

$$

  *****  WEATHER ACROSS SOUTH DAKOTA  *****

CITY           SKY/WX    TMP DP  RH WIND       PRES   REMARKS
SIOUX FALLS    PTSUNNY   81  67  62 N12       30.00F
6HR MIN TEMP:  72; 6HR MAX TEMP:  82;

BROOKINGS      MOSUNNY   76  64  66 N9        30.03S
WATERTOWN      MOSUNNY   78  64  61 N15       30.04S
6HR MIN TEMP:  64; 6HR MAX TEMP:  80;

HURON          SUNNY     79  65  62 N14       30.03F
6HR MIN TEMP:  64; 6HR MAX TEMP:  80;

SISSETON         N/A     77  63  61 NE15      30.03S
ABERDEEN       MOSUNNY   77  64  64 N13       30.07R
6HR MIN TEMP:  66; 6HR MAX TEMP:  77;

MITCHELL       PTSUNNY   81  66  60 N14       30.02F
PIERRE         MOSUNNY   83  62  49 NE13G22   30.03F
6HR MIN TEMP:  63; 6HR MAX TEMP:  84;

MOBRIDGE       MOSUNNY   79  61  53 N10G18    30.07S
RAPID CITY     PTSUNNY   79  64  60 N7        30.13R
6HR MIN TEMP:  63; 6HR MAX TEMP:  80;

$$

  *****  SOME WEATHER IN NEARBY STATES *****

CITY           SKY/WX    TMP DP  RH WIND       PRES   REMARKS
GLASGOW MT     PTSUNNY   70  60  70 VRB6      30.14S
6HR MIN TEMP:  62; 6HR MAX TEMP:  70; 6HR PCP:  0.14;

GREAT FALLS MT SUNNY     75  51  43 E5        30.19S
6HR MIN TEMP:  54; 6HR MAX TEMP:  76;

CHEYENNE WY    SUNNY     78  52  40 MISG      30.27S
6HR MIN TEMP:  59; 6HR MAX TEMP:  78; 6HR PCP: TRACE;

SCOTTSBLUFF NE SUNNY     79  57  46 S6        30.15F
6HR MIN TEMP:  64; 6HR MAX TEMP:  80; 6HR PCP:  0.01;

OMAHA NE       MOSUNNY   86  66  51 NW9       29.98S
6HR MIN TEMP:  72; 6HR MAX TEMP:  87;

DES MOINES IA  CLOUDY    81  70  69 S3        30.00F
6HR MIN TEMP:  70; 6HR MAX TEMP:  83;

DAVENPORT IA   MOSUNNY   84  68  58 MISG      30.00F
6HR MIN TEMP:  66; 6HR MAX TEMP:  84;

CHICAGO IL     MOSUNNY   87  65  47 SW7       30.00F
6HR MIN TEMP:  72; 6HR MAX TEMP:  87;

EAU CLAIRE WI  CLOUDY    79  68  69 VRB3      29.97F
6HR MIN TEMP:  72; 6HR MAX TEMP:  81;

LA CROSSE WI   CLOUDY    84  67  56 S8        29.97F
6HR MIN TEMP:  73; 6HR MAX TEMP:  86;

$$

  *****  SOME NATIONAL WEATHER *****

CITY           SKY/WX    TMP DP  RH WIND       PRES   REMARKS
LA GUARDIA NY  MOSUNNY   91  60  35 SW8       29.91F HX  90
6HR MIN TEMP:  78; 6HR MAX TEMP:  91;

RALEIGH NC     MOSUNNY   95  74  50 CALM      29.97F HX 105
6HR MIN TEMP:  79; 6HR MAX TEMP:  95;

ATLANTA GA     PTSUNNY   85  71  63 SW8       30.08F HX  90
6HR MIN TEMP:  76; 6HR MAX TEMP:  88;

NEW ORLEANS LA PTSUNNY   82  73  74 W8        30.06F
6HR MIN TEMP:  76; 6HR MAX TEMP:  85; 6HR PCP:  0.45;

OKLAHOMA CITY  FAIR      89  73  59 S7        29.98F HX  97
6HR MIN TEMP:  73; 6HR MAX TEMP:  91;

ALBUQUERQUE NM MOSUNNY   84  56  38 NW3       30.23F
6HR MIN TEMP:  69; 6HR MAX TEMP:  84;

SALT LAKE CITY SUNNY     94  31  10 CALM      30.13S
6HR MIN TEMP:  70; 6HR MAX TEMP:  94;

LOS ANGELES CA MOSUNNY   78  66  66 W9        29.94R
6HR MIN TEMP:  68; 6HR MAX TEMP:  78;

BOISE ID       SUNNY     89  47  23 VRB6      30.06S
6HR MIN TEMP:  67; 6HR MC1F1C2F2C3F3C4F4C5F5C6F6C7F7C8F8C9F9CaFaCbFbCcFcCd!



USA.gov is the U.S. government's official web portal to all federal, state and local government web resources and services.